Regional Weather Roundup
Issued by NWS Spokane, WA

Home | Current Version | Previous Version | Text Only | Print | Product List | Glossary On
Versions: 1 2 3 4 5 6 7 8 9 10 11 12 13 14 15 16 17 18 19 20 21 22 23 24 25 26 27 28 29 30 31 32 33 34 35 36 37 38 39 40 41 42 43 44 45 46 47 48 49 50
450
NZUS01 KOTX 280125
RWROTX

Eastern Washington/Northern Idaho Roundup
National Weather Service, Spokane WA
600 PM PDT THU APR 27 2017

Note: "fair" indicated few or no clouds below 12,000 feet with no
significant weather and/or obstructions to visibility.

...Northeast Washington and Northern Idaho Panhandle...

CITY           SKY/WX    TMP DP  RH WIND       PRES   REMARKS
Spokane Intl   PTSUNNY   50  32  50 SW16      29.87S
Spokane Downto PTSUNNY   49  42  77 E7        29.89S
Coeur d Alene  LGT RAIN  45  40  82 W10       29.90R
Deer Park      RAIN      44  36  73 S10       29.88S
Sandpoint      DRIZZLE   45  39  81 CALM      29.88S
Bonners Ferry  CLOUDY    48  36  61 S12G18    29.84S

...Southeast Washington and southern Idaho Panhandle...

CITY           SKY/WX    TMP DP  RH WIND       PRES   REMARKS
Walla Walla    MOSUNNY   56  32  40 SW7       29.94F
Pullman/Moscow PTSUNNY   48  30  49 W14G21    29.93S
Lewiston       CLOUDY    50  34  54 S9        29.93F
Lowell           N/A     43  40  89 CALM      30.00R
Grangeville    CLOUDY    41  32  70 NE5       29.94S

...Columbia Basin...

CITY           SKY/WX    TMP DP  RH WIND       PRES   REMARKS
Ephrata        CLOUDY    59  23  25 N10       29.87S
Moses Lake     CLOUDY    58  22  24 W16       29.89S
Pasco          CLOUDY    59  28  30 NW15      29.94S
Richland       MOCLDY    61  28  28 W16G22    29.94S
Hermiston      CLOUDY    61  34  36 W22G29    29.94S
Pendleton      LGT RAIN  51  37  58 SW13      29.94S

...East Slopes Cascades...

CITY           SKY/WX    TMP DP  RH WIND       PRES   REMARKS
The Dalles     PTSUNNY   55  38  52 NW22G29   30.05R
Yakima         MOSUNNY   60  23  24 N16       29.95S
Ellensburg     MOSUNNY   51  31  46 W28G40    29.95S
Stampede Pass  FOG       33  33 100 VRB5      29.99S VSB 3/4 WCI  29
Wenatchee      SUNNY     56  24  29 W24G32    29.91R
Omak           CLOUDY    56  33  42 N8        29.88S
Chelan           N/A     57  20  23 W17         N/A
Sunnyside      CLEAR     57  26  30 NW14G20   29.94S

...Southern British Columbia...

CITY           SKY/WX    TMP DP  RH WIND       PRES   REMARKS
Penticton      CLOUDY    54  36  50 N5        29.91S
Castlegar      PTSUNNY   48  41  76 S9        29.83R
Cranbrook      LGT RAIN  43  39  87 NW6       29.80R
Osoyoos          N/A     57  34  41 NW8         N/A
Creston          N/A     50  37  62 SE14G20     N/A

...Western Montana...

CITY           SKY/WX    TMP DP  RH WIND       PRES   REMARKS
Kalispell      LGT RAIN  42  39  89 SE12      29.84R
Libby            N/A     48  28  46 N6        29.83R
Missoula       CLOUDY    47  28  47 W18       29.86R

...Neighboring Cities...

CITY           SKY/WX    TMP DP  RH WIND       PRES   REMARKS
Seattle        PTSUNNY   53  39  59 W8        30.08S
Portland       PTSUNNY   50  42  74 SW3       30.13F
Boise          MOSUNNY   51  24  34 NW23      29.92S
Great Falls    CLOUDY    41  35  79 N9        29.80R
Calgary        LGT RAIN  41  28  60 E7        29.78R



USA.gov is the U.S. government's official web portal to all federal, state and local government web resources and services.